UUEE

Moscow/Sheretyevo International Airport

Airport
ICAO code
UUEE
IATA Code
SVO
Summary
ICAO Region
EUR
ICAO Territory
Location

Khimki, Moscow Oblast,

Serving
Moscow
Elevation
622 ft
Coordinates
55° 58' 17" N , 37° 24' 49" E
KCC
Metar
Observation
UUEE 270400Z 23005MPS 9000 -SN OVC007 M03/M05 Q1017 R24L/550136 R24C/520136 NOSIG
Station
Moscow / Sheremet'Ye
Date/Time
2023-01-27 04:00:00
Wind direction
230°
Lowest cloud amount
overcast
Temperature
-3°C
Dew point
-5°C
Humidity
86%
QNH
1017 hPa
Weather condition
n/a

Description

Sheremetyevo International Airport, is an international airport located 29 km north-west of Moscow, Russia. It is a hub for the passenger operations of the Russian international airline Aeroflot, and one of the three major airports serving Moscow along with Domodedovo International Airport and Vnukovo.

Climatology

Humid Continental climate (Köppen climate classification Dfb) - Variable weather patterns and a large seasonal temperature variance. Summers are often warm and humid with frequent thunderstorms and winters can be very cold with frequent snowfall and persistent snow cover.

Runways

Designator Length Width Surface Rops
07L/25R 3550 60 CON Yes/Yes
07R/25L 3700 60 CON Yes/Yes

Airport map

Aerial View

SKYbrary Partners:

Safety knowledge contributed by: